Location: Oakhurst
(33.6448°N, 111.9543°W)
Time: 20:45:34
(UTC+00:00)

DUCHIFAT 1 - Pass Details

Date: 01 August 2021
Orbit: 585 x 601 km, 98.0° (Epoch: 20 September)

Event Time Altitude Azimuth Distance (km) Brightness Sun altitude
Rises 09:01:46 0° 17° (NNE) 2,843 ? -34.4°
Reaches altitude 10° 09:03:58 10° 22° (NNE) 1,940 ? -34.2°
Enters shadow 09:05:30 21° 29° (NNE) 1,345 ? -34.0°
